Location: Ferintosh
(52.7647°N, 112.9692°W)
Time: 14:32:09
(UTC+00:00)

Transit 2A - Pass Details

Date: 25 May 2024
Orbit: 592 x 959 km, 66.7° (Epoch: 23 June)

Event Time Altitude Azimuth Distance (km) Brightness Sun altitude
Rises 09:54:06 0° 300° (WNW) 3,181 9.2 -9.7°
Reaches altitude 10° 09:57:05 10° 318° (NW) 2,329 8.7 -9.5°
Maximum altitude 10:00:54 19° 3° (N) 1,854 8.9 -9.1°
Drops below altitude 10° 10:04:58 10° 48° (NE) 2,506 10.2 -8.8°
Sets 10:08:20 0° 66° (ENE) 3,509 10.6 -8.5°
